Meteo Giornale » Osservazioni meteo Stati Uniti (USA) » Los Angeles

ore: 13:53 - Osservazioni Meteo Los Angeles
Lat. 33° 56' N Lon. 118° 23' W Alt. 38 metri s.l.m.

nuvoloso America/Los_Angeles

17 °C

Nuvoloso

Temp. 24 Ore

13 °C

17 °C

Ovest

18.5 Km/h

Dew point 10 °C

Umidità 63 %

Visibilità  13 Km

Il sole sorge alle ore 06:08

Il sole tramonta alle ore 19:34

Data e Ora Cielo e Fenomeni T °C DP °C Um. % Pres. hPa Vis. km Vento km/h
Oggi h: 13:53 nuvoloso Nuvoloso 17 10 63 1018 13 O 18.5
Oggi h: 12:53 nuvoloso Nuvoloso 17 10 63 1019 14 O 18.5
Oggi h: 11:53 molto_nuvoloso Molto Nuvoloso 16 10 67 1019 11 O/SO 18.5
Oggi h: 10:53 foschia Foschia 16 11 72 1019 10 O/SO 18.5
Oggi h: 09:53 foschia Foschia 16 11 72 1019 10 O 14.8
Oggi h: 08:53 foschia Foschia 15 11 76 1019 10 O 7.4
Oggi h: 07:53 foschia Foschia 14 11 82 1018 8 N 5.5
Oggi h: 07:42 foschia Foschia 14 11 82 1018 8 E 7.4
Oggi h: 06:53 foschia Foschia 14 10 76 1018 8 N 5.5
Oggi h: 05:53 foschia Foschia 13 10 81 1018 10 N 0
Oggi h: 04:53 foschia Foschia 13 10 81 1018 10 N 0
Oggi h: 03:53 coperto Coperto 13 11 87 1018 11 S/SE 7.4
Oggi h: 02:59 coperto Coperto 13 11 87 1018 13 N 0
Oggi h: 02:53 coperto Coperto 13 11 87 1018 13 N 5.5
Oggi h: 01:53 coperto Coperto 13 11 87 1018 11 O/SO 9.3
Oggi h: 00:53 molto_nuvoloso Molto Nuvoloso 13 11 87 1018 13 N 5.5
Ieri h: 23:53 molto_nuvoloso Molto Nuvoloso 13 11 87 1017 13 O 11.1
Ieri h: 22:53 molto_nuvoloso Molto Nuvoloso 13 12 93 1017 10 O 13
Ieri h: 22:49 molto_nuvoloso Molto Nuvoloso 13 12 93 1017 10 O 13
Ieri h: 21:53 poco_nuvoloso Poco Nuvoloso 13 11 87 1016 10 O/SO 7.4
Ieri h: 20:53 poco_nuvoloso Poco Nuvoloso 13 11 87 1016 10 O 7.4
Ieri h: 19:53 nuvoloso Nuvoloso 14 11 82 1016 10 O 11.1
Ieri h: 18:53 nuvoloso Nuvoloso 14 11 82 1016 10 O 13
Ieri h: 17:53 nuvoloso Nuvoloso 15 11 76 1015 10 O/SO 16.7
Ieri h: 16:53 nuvoloso Nuvoloso 16 11 72 1016 10 O/SO 16.7
Ieri h: 15:53 nuvoloso Nuvoloso 16 11 72 1016 10 O 24
Ieri h: 14:53 nuvoloso Nuvoloso 17 11 67 1016 14 O 18.5